Location: Hillern
(53.0557°N, 9.8577°E)
Time: 06:51:12
(UTC+00:00)

Cosmos 1300 - Pass Details

Date: 19 May 2025
Orbit: 394 x 397 km, 82.5° (Epoch: 14 June)

Event Time Altitude Azimuth Distance (km) Brightness Sun altitude
Rises 23:48:14 0° 341° (NNW) 2,321 7.2 -16.6°
Reaches altitude 10° 23:50:23 10° 330° (NNW) 1,455 5.7 -16.6°
Maximum altitude 23:53:11 30° 267° (W) 749 3.4 -16.5°
Enters shadow 23:53:40 28° 249° (WSW) 777 3.3 -16.5°
